STARLINK-3657, 51990

Orbit data source: Space-Track

STARLINK-3657, 51990 is a payload satellite owned by SpaceX/Seattle (US) in LEO that was launched on Wed, 09 Mar 2022 UTC via an FALCON 9 launch vehicle from the Air Force Eastern Test Range (AFETR). Payload-class satellites include a variety of spacecraft equipped with specific instruments for various scientific and technological missions. These include communications satellites like Starlink; space stations such as the ISS; scientific satellites like the Hubble; Earth observation satellites from companies like Planet Labs, Umbra, and HawkEye 360; GPS; miniature CubeSats for education and research; and military/defense satellites.

Loading next visibility...
Identifier
51990, 2022-025AL
Orbit
LEO
Country
Flag of USUS
Related business
Manufacturer
SpaceX/Seattle
Mission
Operational Commercial Communications
Bus & Motor
STARLINK, Unknown motor
Mass
297 kg wet, ~275 kg dry
Launch date (UTC)
2022-03-09 (4 years ago)
Launch vehicle
FALCON 9
Launch site
Air Force Eastern Test Range (AFETR)
Object type
Payload
Rocket body
Debris
Shape & HBR
Box + 1 Pan, 10.1 m
Radar Cross Section
13.562 m², Large (>1 m²)

Expand to show TLE details & history
Last TLE update: 2 days ago

TLE from 2 days ago
0 STARLINK-3657
1 51990U 22025AL  26171.28560286  .00000386  00000-0  42331-4 0  9993
2 51990  53.1597 278.4318 0001067  82.5600 277.5512 15.08828058236829
Epoch: 2026-06-20T06:51Z
TLE epoch observation values (Epoch: 2026-06-20T06:51:16.087Z)
Latitude
-0.00005°
Longitude
-92.88768°
Altitude
540.574 km
Speed
7.593 km/s
True Right ascension
18h 33m 43s
True Declination
0° 00' 00"
Sunlit
Object was in full shadow at epoch
Visualization orbit readout
Latitude
Unknown
Longitude
Unknown
Altitude
Unknown
Speed
Unknown
Apparent Right ascension
Unknown
Apparent Declination
Unknown
Sunlit
N/A
Visualization observer readout
Local Sidereal Time
21:36:15
Azimuth
Unknown
Elevation
Unknown
Doppler factor
Unknown
Orbital elements
Apogee altitude
540.772 km
Perigee altitude
539.296 km
Semi-major axis
6,918.171 km
Eccentricity
0.00011
Inclination
53.1597°
RAAN
278.4318°
Arg. of periapsis
82.56°
True anomaly
277.53908°
Mean anomaly
277.5512°
Eccentric anomaly
277.54514°
Mean motion
3.77187 °/min
Orbital period
95.44 mins
BSTAR
0.000042331
Loading maneuver chart data...
Computing Atmospheric mass density...
Loading historical data...
Loading historical data...
Loading historical data...
Loading historical data...
Loading historical data...
Loading historical data...
Loading historical data...

Documentation

Showing up to 5 results
|